Zurück zum Katalog

STARLINK-30963

AktivKommunikationVLEO
NORAD 58444·PAYLOAD·🇺🇸 United States

Gestartet Nov 28, 2023 von Cape Canaveral Space Force Station

Loading…

Nächste Überflüge (nächste 24 Stunden)

TLE

AktuellSource: CelesTrak SupGP

Epoche: Sep 15, 2026, 03:03 UTC

1 58444C 23183H   26258.12756944 -.00031007  00000+0 -11229-2 0  2580
2 58444  43.0045  51.5344 0001882 271.3711 286.1547 15.27598810    16

Verfolge STARLINK-30963 in Echtzeit mit AllMySat

Download on the App Store